sat.trackr.live / text

‹ back to catalog

STARLINK-36895

NORAD 68038 · 2026-040Z

PAYLOAD ACTIVE UNKNOWN

§ Identity

Operator
Country
US
Launch date
2026-03-01
Launch site
AFWTR
Launch vehicle
Mass (kg)
RCS (m²)

Purposes: comms

External: N2YO · Heavens-Above · Gunter

§ Orbital elements

Epoch: 2026-05-24T19:49:55.302528Z

Period
93.91 min
Inclination
97.2859°
Eccentricity
0.0001664
Mean motion
15.33446509 rev/d
Perigee alt
464.4 km
Apogee alt
466.7 km
Semi-major
6,843.7 km
B*
6.2178e-4
RAAN
93.8870°
Arg perigee
87.7588°
Mean anomaly
272.3845°
Rev number
1,313

§ Raw data

STARLINK-368951 68038U 26040Z   26144.82633452  .00020053  00000+0  62178-3 0  99932 68038  97.2859  93.8870 0001664  87.7588 272.3845 15.33446509 13131

JSON: /api/v1/satellites/68038 · /tle

For live sub-satellite position, see the globe view (requires WebGL).

§ Visibility from observer

Set your observer location to see the next 7 days of passes ≥ 10°. The values pass through the URL so the page stays shareable.

No JS? Fill the form by hand. The geolocation button needs JavaScript.